Regional Weather Roundup
Issued by NWS

Home | Current Version | Previous Version | Text Only | Print | Product List | Glossary Off
Versions: 1 2 3 4 5 6 7 8 9 10 11 12 13 14 15 16 17 18 19 20 21 22 23 24 25 26 27 28 29 30 31 32 33 34 35 36 37 38 39 40 41 42 43 44 45 46 47 48 49 50

000
ASUS43 KLMK 271102
RWRKY
KENTUCKY REGIONAL WEATHER ROUNDUP
NATIONAL WEATHER SERVICE LOUISVILLE KY
600 AM EST TUE JAN 27 2015

NOTE "FAIR" INDICATES FEW OR NO CLOUDS BELOW 12,000 FEET
WITH NO SIGNIFICANT WEATHER AND/OR OBSTRUCTIONS TO VISIBILITY.

KYZ001>023-026-027-061>063-070>075-271200-
WESTERN AND SOUTH CENTRAL KENTUCKY

CITY           SKY/WX    TMP DP  RH WIND       PRES   REMARKS
PADUCAH        CLEAR     34  30  85 W6        29.95R WCI  29
HENDERSON      CLOUDY    32  28  86 CALM      29.94R
OWENSBORO      CLOUDY    31  31 100 CALM      29.94R FOG
HOPKINSVILLE   PTCLDY    32  30  91 W5        29.92R WCI  28
BOWLING GREEN  FRZ RAIN  32  29  88 NE3       29.93R FOG
GLASGOW        NOT AVBL
$$

KYZ024-025-028>034-038-045-046-053-271200-
NORTH CENTRAL KENTUCKY

CITY           SKY/WX    TMP DP  RH WIND       PRES   REMARKS
LOUISVILLE/SDF CLOUDY    30  26  85 N5        29.93R WCI  25
LOUISVILLE/LOU CLOUDY    29  26  89 N3        29.93S
FORT KNOX      CLOUDY    28  26  93 N2        29.91R
$$

KYZ035>037-039>044-047>052-055>060-089>105-271200-
NORTHEAST KENTUCKY

CITY           SKY/WX    TMP DP  RH WIND       PRES   REMARKS
LEXINGTON      LGT SNOW  27  25  92 N3        29.90S FOG
COVINGTON      CLOUDY    22  16  78 NE7       29.93R WCI  13
FRANKFORT      CLOUDY    28  25  88 CALM      29.90R FOG
$$

KYZ054-064>069-076>088-106>120-271200-
SOUTHEAST KENTUCKY

CITY           SKY/WX    TMP DP  RH WIND       PRES   REMARKS
JACKSON        CLOUDY    26  23  88 CALM      29.87R
LONDON         LGT SNOW  30  24  78 W6        29.87R WCI  24
SOMERSET       NOT AVBL
MIDDLESBORO    NOT AVBL
MONTICELLO     LGT SNOW  30  30 100 CALM      29.92R FOG
$$




USA.gov is the U.S. government's official web portal to all federal, state and local government web resources and services.